Overview Statistics Trail Chart Weather Telemetry Raw packets
 

This is the latest recevied weather packets stored in our database for station/object K7KAR-2. If no packets are shown the sender has not sent any weather packets the latest 10 day(s).

<< 99 100 101 102 103 104 105 >>
Time Temp. Humidity Pressure Rain* Wind** Luminosity Snow
1787869474 34.44° C 18% 1013.8 hPa 0 mm - 184 W/m² -
1787869176 35° C 18% 1014 hPa 0 mm - 181 W/m² -
1787868868 34.44° C 18% 1013.7 hPa 0 mm - 213 W/m² -
1787868566 34.44° C 18% 1013.8 hPa 0 mm - 273 W/m² -
1787868266 34.44° C 18% 1013.8 hPa 0 mm - 297 W/m² -
1787867961 33.89° C 18% 1013.9 hPa 0 mm - 308 W/m² -
1787867656 34.44° C 18% 1013.9 hPa 0 mm - 344 W/m² -
1787867355 34.44° C 18% 1013.8 hPa 0 mm - 343 W/m² -
1787867052 33.89° C 19% 1014.1 hPa 0 mm - 367 W/m² -
1787866748 33.89° C 19% 1014.3 hPa 0 mm - 263 W/m² -
1787866447 33.89° C 19% 1014.1 hPa 0 mm - 211 W/m² -
1787866150 34.44° C 18% 1014.3 hPa 0 mm - 219 W/m² -
1787865841 34.44° C 18% 1014.3 hPa 0 mm - 232 W/m² -
1787865536 33.89° C 19% 1014.5 hPa 0 mm - 252 W/m² -
1787865231 34.44° C 18% 1014.5 hPa 0 mm - 239 W/m² -
1787864927 33.89° C 19% 1014.6 hPa 0 mm - 267 W/m² -
1787864623 34.44° C 18% 1014.6 hPa 0 mm - 262 W/m² -
1787864316 34.44° C 18% 1014.7 hPa 0 mm - 267 W/m² -
1787864011 35° C 18% 1014.7 hPa 0 mm - 308 W/m² -
1787863709 35.56° C 17% 1014.6 hPa 0 mm - 489 W/m² -
1787863409 35.56° C 17% 1014.8 hPa 0 mm - 756 W/m² -
1787863105 35° C 18% 1014.9 hPa 0 mm - 670 W/m² -
1787862800 35.56° C 17% 1014.9 hPa 0 mm - 638 W/m² -
1787862499 35° C 17% 1014.8 hPa 0 mm - 665 W/m² -
1787862195 35° C 17% 1015 hPa 0 mm - 476 W/m² -

* Rain latest hour (hover to see other rain measurements)
** Current wind speed in m/s (hover to see current wind gust speed)